Date String (YYYY-MM-DD hh:mm:ss) UTC,Instrument flags,absolute air pressure of the measurement (hPa),sample flow rate (lpm),inlet stack bypass flow (lpm),air temperature of the measurement (°C),ambient temperature measured by the external sensor (°C),aerosol sample conditioner tube jacket temperature (°C),OPC LED temperature (°C),internal box temperature (°C),relative humidity of the measurement (%),span deviation,mass concentration of particles derived from Lorenz-Mie calculation of OPC scattering (μg/m³),mass concentration of particles derived from Lorenz-Mie calculation of OPC scattering (μg/m³),mass concentration of particles derived from Lorenz-Mie calculation of OPC scattering (μg/m³)
DateTimeUTC,F1_M11,P_M11,Q1_M11,Q2_M11,T1_M11,T2_M11,T3_M11,T4_M11,T5_M11,U1_M11,ZSPAN_M11,X2_M11,X0_M11,X1_M11
2023-10-15 11:00:00,SystemResetWarning,0838.8,5.00,000.00,025.0,023.5,000.0,033.4,026.7,15.0,0001.9,0005.11,0009.23,0004.82
2023-10-15 11:01:00,SystemResetWarning,0838.8,5.00,000.00,025.0,023.4,000.0,033.4,026.7,15.1,0002.6,0005.09,0009.13,0004.79
2023-10-15 11:02:00,SystemResetWarning,0838.9,5.01,000.00,025.0,023.4,000.0,033.4,026.7,15.2,0003.2,0005.06,0008.82,0004.77
2023-10-15 11:03:00,SystemResetWarning,0839.0,5.01,000.00,025.0,023.4,000.0,033.4,026.7,15.2,0002.5,0005.02,0009.02,0004.74
2023-10-15 11:04:00,SystemResetWarning,0838.9,5.00,000.00,025.0,023.4,000.0,033.4,026.7,15.2,0002.4,0004.99,0009.19,0004.71
2023-10-15 11:05:00,SystemResetWarning,0838.9,5.00,000.00,025.0,023.4,000.0,033.4,026.7,15.2,0003.0,0004.99,0009.18,0004.68
2023-10-15 11:06:00,SystemResetWarning,0838.9,5.00,000.00,025.0,023.4,000.0,033.4,026.7,15.2,0002.7,0004.95,0009.27,0004.63
2023-10-15 11:07:00,SystemResetWarning,0838.9,5.00,000.00,025.0,023.5,000.0,033.4,026.7,15.2,0003.3,0004.88,0009.14,0004.59
2023-10-15 11:08:00,SystemResetWarning,0838.9,5.00,000.00,025.0,023.5,000.0,033.4,026.7,15.2,0003.9,0004.81,0009.04,0004.52
2023-10-15 11:09:00,SystemResetWarning,0838.9,5.00,000.00,025.0,023.5,000.0,033.4,026.7,15.2,0001.7,0004.75,0008.84,0004.45
2023-10-15 11:10:00,SystemResetWarning,0838.8,5.00,000.00,025.0,023.5,000.0,033.4,026.7,15.0,0001.9,0004.70,0008.72,0004.42
2023-10-15 11:11:00,SystemResetWarning,0838.9,5.00,000.00,025.0,023.5,000.0,033.4,026.7,15.0,0003.8,0004.66,0008.57,0004.39
2023-10-15 11:12:00,SystemResetWarning,0838.9,5.00,000.00,025.0,023.5,000.0,033.4,026.7,15.3,0000.0,0004.63,0008.52,0004.36
2023-10-15 11:13:00,SystemResetWarning,0838.9,5.00,000.00,025.0,023.5,000.0,033.4,026.7,15.5,0000.0,0004.60,0008.62,0004.33
2023-10-15 11:14:00,SystemResetWarning,0838.9,5.00,000.00,025.0,023.5,000.0,033.4,026.7,15.6,0000.0,0004.56,0008.31,0004.29
2023-10-15 11:15:00,SystemResetWarning,0838.8,5.00,000.00,025.0,023.5,000.0,033.4,026.7,15.7,0000.0,0004.53,0007.59,0004.25
2023-10-15 11:16:00,SystemResetWarning,0839.0,5.00,000.00,025.0,023.5,000.0,033.4,026.7,15.8,0000.0,0004.47,0007.18,0004.21
2023-10-15 11:17:00,SystemResetWarning,0838.9,5.00,000.00,025.0,023.4,000.0,033.4,026.7,15.8,0000.0,0004.45,0006.94,0004.20
2023-10-15 11:18:00,SystemResetWarning,0838.9,5.00,000.00,025.0,023.4,000.0,033.4,026.7,15.7,0000.0,0004.49,0007.06,0004.21
2023-10-15 11:19:00,SystemResetWarning,0838.9,5.00,000.00,025.0,023.4,000.0,033.4,026.7,15.7,0000.0,0004.53,0007.27,0004.23
2023-10-15 11:20:00,SystemResetWarning,0838.9,5.01,000.00,025.0,023.4,000.0,033.4,026.7,15.6,0000.0,0004.57,0007.38,0004.28
2023-10-15 11:21:00,SystemResetWarning,0838.9,5.01,000.00,025.0,023.4,000.0,033.4,026.7,15.5,0000.0,0004.59,0007.45,0004.27
2023-10-15 11:22:00,SystemResetWarning,0839.0,5.01,000.00,024.9,023.4,000.0,033.4,026.7,15.4,0000.0,0004.60,0007.50,0004.27
2023-10-15 11:23:00,SystemResetWarning,0839.1,5.00,000.00,024.9,023.4,000.0,033.4,026.7,15.4,0000.0,0004.60,0007.50,0004.27
2023-10-15 11:24:00,SystemResetWarning,0839.1,4.99,000.00,024.9,023.4,000.0,033.4,026.7,15.6,0000.0,0004.62,0007.45,0004.29
2023-10-15 11:25:00,SystemResetWarning,0839.1,5.00,000.00,024.9,023.4,000.0,033.4,026.7,15.7,0000.0,0004.63,0007.47,0004.32
2023-10-15 11:26:00,SystemResetWarning,0839.1,5.00,000.00,024.9,023.4,000.0,033.4,026.7,15.7,0000.0,0004.65,0007.47,0004.36
2023-10-15 11:27:00,SystemResetWarning,0839.1,5.00,000.00,024.9,023.4,000.0,033.4,026.7,15.6,0000.0,0004.67,0007.88,0004.38
2023-10-15 11:28:00,SystemResetWarning,0839.1,4.99,000.00,025.0,023.5,000.0,033.4,026.7,15.5,0000.0,0004.68,0007.90,0004.37
2023-10-15 11:29:00,SystemResetWarning,0839.1,5.00,000.00,025.0,023.5,000.0,033.4,026.7,15.4,0000.0,0004.64,0007.87,0004.34
2023-10-15 11:30:00,SystemResetWarning,0839.1,5.00,000.00,025.0,023.5,000.0,033.4,026.7,15.4,0000.0,0004.58,0007.70,0004.30
2023-10-15 11:31:00,SystemResetWarning,0839.1,5.01,000.00,025.0,023.5,000.0,033.4,026.7,15.4,0000.0,0004.56,0007.69,0004.28
2023-10-15 11:32:00,SystemResetWarning,0839.1,5.00,000.00,025.0,023.5,000.0,033.4,026.7,15.4,0000.0,0004.52,0007.70,0004.27
2023-10-15 11:33:00,SystemResetWarning,0839.0,5.00,000.00,025.0,023.5,000.0,033.4,026.7,15.4,0000.0,0004.46,0007.65,0004.22
2023-10-15 11:34:00,SystemResetWarning,0839.0,4.99,000.00,025.0,023.5,000.0,033.4,026.7,15.4,0000.0,0004.41,0007.67,0004.16
2023-10-15 11:35:00,SystemResetWarning,0838.9,4.99,000.00,025.0,023.5,000.0,033.4,026.7,15.4,0000.0,0004.34,0007.56,0004.09
2023-10-15 11:36:00,SystemResetWarning,0839.0,5.00,000.00,025.0,023.5,000.0,033.4,026.7,15.3,0000.0,0004.27,0007.41,0004.03
2023-10-15 11:37:00,SystemResetWarning,0839.1,4.99,000.00,025.0,023.5,000.0,033.4,026.7,15.3,0000.0,0004.25,0007.67,0004.00
2023-10-15 11:38:00,SystemResetWarning,0839.1,5.00,000.00,024.9,023.5,000.0,033.3,026.7,15.3,0000.0,0004.24,0007.52,0003.99
2023-10-15 11:39:00,SystemResetWarning,0839.2,5.00,000.00,025.0,023.5,000.0,033.4,026.7,15.2,0000.0,0004.24,0007.83,0003.98
2023-10-15 11:40:00,SystemResetWarning,0839.2,5.00,000.00,025.0,023.4,000.0,033.4,026.7,15.2,0000.0,0004.25,0008.26,0004.00
2023-10-15 11:41:00,SystemResetWarning,0839.2,5.00,000.00,024.9,023.4,000.0,033.3,026.7,15.3,0000.0,0004.29,0008.87,0004.03
2023-10-15 11:42:00,SystemResetWarning,0839.1,5.00,000.00,024.9,023.5,000.0,033.3,026.7,15.3,0000.0,0004.28,0009.26,0004.02
2023-10-15 11:43:00,SystemResetWarning,0839.2,5.01,000.00,024.9,023.5,000.0,033.3,026.7,15.3,0000.0,0004.30,0009.25,0004.05
2023-10-15 11:44:00,SystemResetWarning,0839.2,5.00,000.00,025.0,023.5,000.0,033.4,026.7,15.2,0000.0,0004.37,0009.48,0004.11
2023-10-15 11:45:00,SystemResetWarning,0839.2,5.00,000.00,025.0,023.5,000.0,033.4,026.7,15.2,0000.0,0004.39,0009.65,0004.15
2023-10-15 11:46:00,SystemResetWarning,0839.2,4.99,000.00,024.9,023.4,000.0,033.4,026.7,15.2,0000.0,0004.39,0010.27,0004.15
2023-10-15 11:47:00,SystemResetWarning,0839.2,4.99,000.00,024.9,023.4,000.0,033.4,026.6,15.2,0000.0,0004.46,0010.77,0004.18
2023-10-15 11:48:00,SystemResetWarning,0839.2,5.00,000.00,024.9,023.4,000.0,033.4,026.6,15.2,0000.0,0004.55,0011.59,0004.20
2023-10-15 11:49:00,SystemResetWarning,0839.2,5.01,000.00,024.9,023.4,000.0,033.4,026.6,15.2,0000.0,0004.58,0011.33,0004.22
2023-10-15 11:50:00,SystemResetWarning,0839.2,5.01,000.00,024.9,023.4,000.0,033.4,026.6,15.3,0000.0,0004.62,0011.21,0004.23
2023-10-15 11:51:00,SystemResetWarning,0839.2,5.00,000.00,024.9,023.4,000.0,033.4,026.6,15.3,0000.0,0004.67,0010.88,0004.25
2023-10-15 11:52:00,SystemResetWarning,0839.2,4.99,000.00,024.9,023.4,000.0,033.4,026.6,15.3,0000.0,0004.69,0010.67,0004.26
2023-10-15 11:53:00,SystemResetWarning,0839.2,4.99,000.00,024.9,023.4,000.0,033.3,026.6,15.3,0000.0,0004.73,0010.48,0004.28
2023-10-15 11:54:00,SystemResetWarning,0839.1,4.99,000.00,024.9,023.3,000.0,033.3,026.6,15.2,0000.0,0004.74,0010.71,0004.28
2023-10-15 11:55:00,SystemResetWarning,0839.2,5.00,000.00,024.9,023.3,000.0,033.3,026.6,15.2,0000.0,0004.76,0010.71,0004.26
2023-10-15 11:56:00,SystemResetWarning,0839.2,5.01,000.00,024.9,023.3,000.0,033.3,026.6,15.2,0000.0,0004.79,0010.92,0004.26
2023-10-15 11:57:00,SystemResetWarning,0839.2,5.01,000.00,024.9,023.4,000.0,033.3,026.6,15.2,0000.0,0004.84,0010.34,0004.30
2023-10-15 11:58:00,SystemResetWarning,0839.3,4.99,000.00,024.9,023.4,000.0,033.3,026.6,15.2,0000.0,0004.83,0010.02,0004.29
2023-10-15 11:59:00,SystemResetWarning,0839.2,4.98,000.00,024.9,023.4,000.0,033.3,026.6,15.2,0000.0,0004.78,0009.03,0004.28
